Wind_Speed
19 16 13 9 8 9 9 8 4 5 6 9 9 7 10 14 13 13 11 12 12 12 12 14 12 12 13 14 15 16 17 18 19 22 23 25 25 26 29 31 32 33 35 34
28 24 20 15 13 9 10 9 9 4 3 3 4 1 6 4 11 9 7 9 9 9 11 12 14 15 14 15 17 19 21 22 22 24 25 28 30 31 33 35 36 38 40 39
35 32 28 23 20 15 11 9 9 11 6 6 2 4 6 4 4 2 4 5 5 7 10 12 13 15 15 16 17 19 21 22 24 24 26 29 31 32 34 36 38 39 41 43
42 35 34 31 25 22 18 14 12 11 11 11 8 6 5 2 2 3 2 7 7 9 13 15 15 13 14 16 18 22 24 26 27 29 29 29 32 34 37 40 43 45 46 47
48 42 41 36 31 26 25 21 17 15 17 13 10 11 11 7 7 10 11 10 13 15 16 16 19 19 19 17 19 21 24 27 28 30 32 31 35 39 41 43 46 48 51 53
52 48 43 42 36 34 33 27 26 21 20 22 14 14 12 13 13 11 15 15 17 16 17 18 23 21 25 20 26 21 27 30 33 34 35 35 38 40 43 43 47 49 52 54
50 46 45 47 44 41 38 34 33 29 28 25 20 18 20 16 17 14 16 17 21 21 21 21 22 25 25 28 30 30 29 38 37 38 40 38 39 42 44 45 49 52 56 60
55 50 47 49 48 47 46 43 36 36 33 32 26 25 26 22 23 19 23 24 23 25 26 28 31 31 31 30 22 25 32 40 40 41 43 43 41 47 47 46 50 54 55 59
55 51 52 51 51 49 48 43 45 44 38 35 33 32 30 28 27 27 31 31 28 30 33 38 41 42 41 36 28 33 37 40 42 42 46 46 49 52 54 51 54 58 57 60
62 61 61 59 56 52 48 47 47 45 43 41 40 36 34 33 34 33 36 35 31 31 35 37 40 40 42 43 40 38 40 42 44 43 43 46 53 57 57 52 56 61 58 60
69 65 64 65 57 56 53 49 49 50 47 45 46 42 40 38 40 37 37 40 39 34 37 37 41 40 41 43 45 45 47 45 46 47 44 50 56 59 58 56 58 62 60 64
73 72 72 61 61 61 58 55 52 52 49 48 47 47 46 43 42 40 40 41 45 45 38 39 40 43 46 49 51 50 49 48 51 50 47 56 62 64 53 58 60 63 65 67
79 73 76 72 67 65 62 59 56 57 55 50 53 50 51 45 45 44 45 47 48 49 45 43 43 43 46 51 54 52 50 51 52 52 52 55 56 50 57 67 68 68 69 68
84 78 79 73 69 70 70 67 64 63 61 62 60 58 54 49 46 50 48 46 48 45 47 48 48 48 48 50 52 51 51 54 53 54 56 51 53 55 69 72 71 70 71 69
81 77 79 75 75 76 73 73 71 68 66 67 68 65 58 54 52 51 51 50 51 50 51 56 55 52 50 51 53 57 56 55 54 57 56 59 60 65 69 70 70 74 72 69
79 74 74 75 77 77 75 74 72 72 73 71 70 69 65 61 58 58 54 52 54 58 55 54 57 56 54 54 55 57 58 59 57 59 58 58 60 69 70 70 72 74 70 71
78 72 73 70 69 71 72 67 70 72 71 73 71 70 70 66 66 64 60 59 61 60 60 63 63 58 57 57 58 60 59 58 60 58 62 59 67 68 68 69 74 73 71 75
80 76 76 74 75 75 69 67 68 70 68 70 71 73 75 71 72 68 68 65 67 66 67 70 74 68 63 59 60 61 60 57 56 59 64 68 66 69 71 74 71 72 75 79
82 80 80 79 75 72 73 72 73 76 76 75 69 69 69 69 72 69 69 70 70 71 70 72 74 72 69 68 67 65 60 59 60 62 66 64 70 71 73 72 74 75 78 84
89 87 83 84 81 78 74 76 77 76 80 77 75 72 70 70 70 73 73 72 72 73 75 78 79 77 73 71 72 68 66 63 66 67 63 62 69 70 68 71 73 82 85 79
90 90 88 84 82 80 80 81 80 78 80 78 74 77 78 76 78 78 76 75 75 76 78 78 80 81 81 77 73 70 63 63 59 55 59 61 64 62 74 77 79 81 63 37
83 83 84 86 87 85 82 81 82 80 82 82 79 81 78 77 80 79 78 76 73 69 68 73 72 69 73 79 81 75 65 61 62 61 61 60 60 64 66 64 70 49 43 56
78 79 81 82 83 82 82 83 80 80 80 80 80 80 79 78 80 82 79 72 72 72 71 70 72 78 80 78 77 73 67 67 62 58 55 62 53 52 46 60 58 52 53 79
73 76 75 72 74 79 82 82 82 84 83 77 80 76 77 73 69 70 69 72 70 75 75 77 77 74 68 63 64 67 63 53 58 55 56 63 51 50 53 63 65 71 77 95
75 74 71 73 50 52 66 66 65 72 78 69 57 49 51 52 58 68 66 76 79 83 82 84 77 75 67 65 69 64 64 70 65 72 71 71 75 69 70 79 86 86 100 103
73 69 66 68 69 73 74 74 70 65 71 60 63 69 72 74 71 72 74 83 82 81 76 72 80 76 76 76 79 73 68 73 76 83 81 79 74 72 81 90 94 98 105 108
Wind_Direction
266 273 283 300 322 338 345 333 14 61 74 84 77 61 75 71 58 57 48 51 42 43 36 28 39 39 31 22 19 21 20 16 10 2 359 359 359 356 355 359 2 0 0 357
260 263 272 279 283 290 306 326 314 321 357 53 79 104 228 65 67 61 64 60 53 43 38 40 31 32 32 24 19 18 20 15 7 3 0 359 1 357 353 352 353 351 352 354
254 259 266 267 272 265 267 282 299 299 299 287 301 326 342 110 91 39 18 29 32 7 11 5 12 15 11 11 10 5 7 6 2 356 355 354 353 350 351 351 349 348 346 349
251 254 260 262 263 259 257 251 272 281 278 285 280 279 289 307 291 302 298 348 317 339 358 351 343 349 349 351 353 352 350 351 349 348 345 341 343 346 348 347 348 348 347 346
249 247 251 254 256 257 256 250 247 249 274 269 278 278 275 284 276 297 309 320 323 283 309 328 324 330 328 335 341 343 340 337 336 336 335 332 338 342 343 344 344 343 344 345
244 247 250 255 254 254 255 255 254 246 248 259 264 276 273 282 284 284 292 302 299 304 286 307 311 315 327 310 338 324 336 334 331 329 329 330 332 335 337 335 338 339 341 342
250 250 248 252 253 253 256 256 254 252 251 251 244 256 269 270 271 284 286 288 290 299 302 307 303 308 308 315 310 314 307 325 324 324 324 325 324 328 328 328 331 335 338 341
243 245 246 248 249 249 250 252 255 256 252 252 251 257 257 264 275 283 281 285 293 301 303 305 302 301 305 310 319 314 311 317 321 323 323 320 319 323 323 325 326 329 333 337
243 243 245 246 248 249 250 253 253 255 259 259 255 255 261 266 268 271 278 283 286 295 300 298 299 304 307 309 311 312 312 317 319 323 323 318 320 322 321 322 324 326 325 331
240 239 242 243 244 247 249 250 254 256 257 258 260 259 257 259 263 265 271 275 279 286 288 291 298 304 304 308 312 311 310 313 316 323 316 313 317 316 316 317 320 324 319 324
239 241 243 244 249 251 252 253 254 254 254 255 258 259 261 259 262 266 269 275 274 273 279 289 294 297 297 301 303 305 305 311 312 318 313 310 313 313 313 316 318 320 316 320
239 240 243 245 245 246 246 250 254 261 262 261 261 261 259 258 262 265 268 274 278 279 274 280 285 292 295 295 296 299 303 308 311 314 308 309 310 309 311 318 315 318 317 317
239 241 243 243 245 250 255 256 256 258 261 264 263 261 263 266 266 264 263 267 273 278 282 283 286 287 288 289 292 299 305 308 311 311 306 308 310 302 309 316 317 316 315 313
239 238 242 244 246 247 250 253 254 257 260 261 262 263 267 269 270 271 271 273 277 284 290 286 283 285 290 295 301 304 303 305 306 305 303 300 303 298 302 308 311 312 311 310
237 240 242 243 245 248 251 254 257 259 259 262 266 267 269 270 271 271 274 276 276 275 275 280 287 290 293 295 297 297 300 303 304 304 303 306 303 306 306 305 307 306 308 307
237 236 240 243 246 248 249 252 257 259 261 263 264 269 269 267 268 269 270 274 275 278 279 280 280 283 286 290 292 293 297 299 302 303 302 300 298 304 305 303 303 304 305 308
234 237 239 240 241 245 247 250 254 256 258 261 264 266 268 268 269 270 274 273 273 275 278 277 279 278 280 283 287 291 295 300 303 303 306 301 302 303 301 302 302 301 302 303
237 237 240 242 245 248 253 255 257 258 261 261 261 261 264 268 271 272 270 270 273 276 277 279 280 283 285 286 286 288 292 298 295 297 294 296 299 299 299 300 297 295 298 301
235 240 241 244 247 250 252 257 258 260 260 260 261 265 270 269 271 273 274 272 272 274 276 277 280 283 284 283 285 286 290 292 291 291 291 293 294 297 299 295 291 294 292 294
234 234 238 243 244 247 251 255 259 260 262 262 264 265 267 268 268 270 271 271 271 272 273 273 275 280 281 283 285 289 290 291 294 294 295 293 296 295 292 288 287 289 296 296
233 235 238 238 244 247 247 250 253 256 261 265 264 264 265 266 268 269 267 268 271 274 279 282 283 282 281 285 285 288 294 296 296 298 301 292 291 289 288 288 289 294 293 283
233 236 240 242 243 244 247 252 256 259 261 265 266 268 270 271 271 272 276 277 278 278 277 278 278 283 290 291 292 293 295 298 296 295 294 283 283 288 297 297 295 286 287 293
231 235 239 241 243 245 246 248 249 253 256 258 264 265 267 269 269 272 275 277 279 279 275 274 282 283 288 289 294 298 300 299 296 291 285 284 283 287 298 288 278 283 284 297
231 234 236 241 246 249 250 250 251 251 254 259 261 265 269 269 269 271 273 271 270 273 275 276 281 284 284 287 291 291 291 285 289 288 282 278 285 275 260 273 278 275 286 296
234 235 235 240 226 251 251 251 256 256 259 256 258 249 253 258 262 267 261 261 266 268 269 275 279 283 282 285 289 285 281 283 279 286 282 274 273 268 267 271 272 277 286 294
234 236 237 234 234 238 245 251 251 248 247 248 238 238 246 253 258 261 265 269 270 275 278 278 279 281 287 284 281 280 276 278 273 280 277 277 266 267 273 269 277 283 287 288
Height
11000 11000 10999 11000 10998 10999 11000 11000 11001 11001 10999 10997 10996 10994 10993 10991 10991 10990 10990 10989 10989 10988 10988 10986 10983 10982 10980 10979 10978 10977 10975 10973 10970 10968 10965 10962 10960 10957 10952 10949 10945 10941 10937 10932
10994 10995 10996 10997 10997 10998 10998 10998 10997 10998 10999 10999 10997 10995 10994 10994 10993 10992 10992 10990 10990 10990 10988 10987 10985 10982 10981 10980 10978 10976 10974 10972 10971 10967 10964 10961 10957 10954 10950 10946 10941 10936 10933 10929
10986 10988 10991 10992 10994 10995 10997 10996 10996 10995 10995 10997 10997 10994 10993 10993 10992 10992 10992 10989 10987 10988 10986 10986 10984 10982 10980 10978 10977 10976 10974 10971 10968 10967 10962 10958 10957 10953 10949 10944 10939 10934 10930 10924
10976 10982 10984 10985 10988 10989 10992 10993 10994 10994 10993 10993 10995 10994 10993 10992 10992 10992 10991 10988 10987 10987 10983 10982 10982 10981 10980 10978 10976 10972 10970 10968 10966 10963 10960 10958 10955 10951 10945 10939 10933 10927 10923 10917
10966 10972 10974 10979 10980 10983 10984 10986 10989 10991 10989 10990 10991 10991 10991 10990 10991 10988 10985 10985 10985 10984 10982 10979 10979 10979 10977 10976 10973 10971 10970 10969 10965 10962 10958 10954 10948 10943 10939 10934 10929 10923 10916 10910
10956 10961 10967 10968 10972 10975 10976 10978 10980 10984 10986 10985 10987 10986 10987 10987 10987 10986 10983 10982 10981 10980 10981 10978 10975 10974 10974 10973 10972 10970 10967 10964 10961 10958 10954 10948 10942 10937 10933 10929 10924 10917 10911 10905
10947 10954 10958 10957 10960 10964 10967 10969 10971 10973 10976 10978 10982 10984 10982 10984 10984 10984 10981 10981 10978 10978 10975 10974 10974 10972 10971 10970 10966 10963 10962 10960 10956 10951 10946 10942 10937 10932 10928 10923 10915 10907 10899 10891
10934 10941 10946 10948 10951 10952 10954 10957 10963 10962 10967 10968 10972 10976 10976 10977 10977 10979 10978 10979 10977 10973 10970 10967 10967 10966 10966 10966 10963 10956 10954 10952 10947 10941 10936 10931 10926 10923 10918 10914 10907 10899 10891 10884
10923 10931 10930 10934 10937 10941 10945 10951 10950 10951 10957 10961 10963 10966 10967 10970 10971 10972 10970 10972 10975 10971 10965 10961 10957 10953 10952 10955 10955 10954 10948 10943 10939 10932 10925 10920 10913 10908 10904 10900 10894 10886 10880 10873
10907 10910 10916 10919 10922 10929 10936 10937 10941 10944 10947 10949 10951 10956 10960 10962 10963 10965 10965 10965 10969 10966 10962 10960 10953 10948 10943 10940 10943 10944 10943 10937 10928 10922 10916 10909 10904 10898 10895 10891 10884 10877 10870 10865
10889 10896 10900 10902 10917 10918 10922 10927 10929 10929 10935 10939 10941 10947 10949 10952 10952 10956 10956 10953 10955 10960 10956 10953 10947 10946 10939 10935 10934 10934 10933 10929 10922 10915 10909 10902 10896 10890 10884 10879 10873 10868 10859 10853
10875 10879 10879 10898 10900 10901 10907 10913 10917 10918 10923 10927 10931 10935 10938 10942 10945 10947 10947 10942 10939 10941 10952 10949 10945 10937 10933 10929 10926 10925 10922 10918 10914 10907 10901 10894 10887 10879 10873 10869 10862 10855 10846 10840
10855 10869 10867 10876 10886 10892 10898 10903 10906 10906 10907 10914 10914 10921 10923 10931 10934 10937 10936 10934 10930 10929 10933 10935 10934 10931 10927 10922 10916 10913 10908 10905 10903 10899 10893 10884 10876 10868 10860 10854 10848 10842 10834 10828
10831 10850 10853 10869 10879 10878 10879 10885 10892 10893 10896 10896 10901 10905 10911 10919 10923 10918 10921 10923 10918 10918 10915 10918 10919 10918 10916 10908 10898 10896 10897 10897 10892 10887 10882 10872 10864 10858 10849 10842 10837 10829 10823 10817
10816 10836 10842 10855 10859 10861 10868 10872 10874 10881 10885 10881 10881 10888 10900 10905 10907 10908 10909 10909 10907 10909 10907 10902 10901 10902 10901 10897 10887 10884 10886 10884 10882 10875 10868 10858 10848 10844 10837 10830 10823 10817 10812 10804
10804 10822 10827 10836 10842 10847 10854 10859 10863 10865 10865 10868 10871 10874 10880 10886 10892 10895 10899 10898 10894 10888 10893 10893 10890 10889 10885 10885 10879 10877 10874 10870 10868 10862 10855 10848 10834 10829 10822 10816 10809 10801 10796 10790
10788 10810 10811 10823 10828 10829 10834 10848 10847 10848 10852 10854 10858 10863 10857 10867 10873 10876 10881 10882 10878 10876 10872 10873 10878 10880 10879 10877 10870 10865 10862 10860 10852 10844 10836 10831 10826 10815 10808 10801 10794 10786 10782 10775
10779 10793 10797 10805 10809 10812 10824 10830 10831 10832 10837 10837 10838 10843 10843 10853 10854 10863 10867 10868 10863 10861 10856 10855 10851 10860 10864 10861 10857 10854 10852 10849 10842 10836 10824 10815 10806 10801 10794 10788 10780 10773 10767 10761
10765 10773 10780 10786 10798 10805 10807 10809 10813 10812 10814 10818 10828 10832 10836 10838 10837 10843 10848 10848 10846 10841 10838 10838 10837 10838 10839 10838 10836 10835 10837 10835 10830 10825 10813 10801 10793 10787 10779 10772 10765 10759 10750 10744
10746 10754 10762 10770 10779 10786 10797 10793 10792 10796 10795 10806 10813 10819 10824 10826 10826 10825 10826 10827 10827 10823 10820 10819 10821 10824 10821 10817 10813 10815 10816 10816 10812 10806 10795 10785 10776 10767 10761 10753 10745 10739 10736 10729
10725 10731 10742 10752 10758 10769 10776 10775 10776 10779 10777 10787 10798 10795 10801 10805 10805 10807 10810 10811 10810 10808 10805 10802 10802 10803 10799 10795 10798 10800 10798 10794 10790 10782 10773 10764 10759 10749 10744 10738 10731 10725 10717 10711
10710 10717 10726 10737 10745 10752 10760 10763 10765 10768 10768 10767 10775 10774 10782 10785 10782 10785 10788 10789 10790 10791 10791 10787 10784 10782 10781 10775 10775 10776 10779 10776 10771 10764 10759 10750 10747 10736 10727 10715 10709 10709 10701 10694
10697 10698 10708 10719 10729 10739 10744 10748 10754 10755 10756 10754 10755 10758 10760 10763 10763 10766 10771 10769 10767 10767 10768 10769 10772 10769 10766 10759 10754 10754 10754 10752 10754 10750 10743 10733 10729 10726 10722 10702 10689 10690 10685 10681
10677 10687 10696 10703 10712 10716 10723 10728 10735 10740 10740 10742 10741 10739 10739 10744 10748 10750 10750 10753 10751 10749 10751 10753 10751 10750 10747 10747 10745 10742 10740 10740 10740 10735 10729 10724 10720 10716 10715 10697 10678 10670 10665 10660
10660 10673 10683 10692 10699 10700 10704 10710 10713 10718 10724 10728 10728 10728 10726 10727 10730 10734 10736 10732 10731 10730 10733 10733 10731 10733 10732 10735 10732 10731 10728 10725 10720 10717 10714 10709 10705 10697 10687 10676 10665 10658 10652 10646
10652 10661 10671 10679 10682 10688 10690 10694 10697 10701 10703 10708 10707 10707 10707 10711 10714 10715 10714 10710 10710 10710 10712 10710 10710 10713 10713 10712 10710 10712 10711 10707 10701 10696 10690 10688 10683 10671 10664 10658 10649 10641 10639 10632